Regional Weather Roundup
Issued by NWS

Home | Current Version | Previous Version | Text Only | Print | Product List | Glossary Off
Versions: 1 2 3 4 5 6 7 8 9 10 11 12 13 14 15 16 17 18 19 20 21 22 23 24 25 26 27 28 29 30 31 32 33 34 35 36 37 38 39 40 41 42 43 44 45 46 47 48 49 50

000
ASUS43 KOAX 281402
RWRNE

WEATHER ROUNDUP FOR NEBRASKA
NATIONAL WEATHER SERVICE OMAHA NE
900 AM CDT FRI AUG 28 2015

NOTES: SATELLITE DATA IS BEING USED TO AUGMENT CLOUD COVER ABOVE
       12000 FEET.
       "FAIR" INDICATES FEW OR NO CLOUDS BELOW 12,000 FEET WITH NO
       SIGNIFICANT WEATHER AND/OR OBSTRUCTIONS TO VISIBILITY.

  * THESE STATIONS DO NOT REPORT WEATHER SUCH AS RAIN...SNOW OR FOG.

NEZ001>004-019>022-054>056-281500-
NEBRASKA PANHANDLE

CITY           SKY/WX    TMP DP  RH WIND       PRES   REMARKS
SCOTTSBLUFF    SUNNY     61  53  75 NW9       30.11R
ALLIANCE       SUNNY     58  53  84 W8        30.07R
CHADRON        SUNNY     64  51  62 VRB6      30.07R HAZE
KIMBALL        SUNNY     64  49  58 W10       30.15S
SIDNEY         SUNNY     66  52  60 NW14      30.12R
$$

NEZ057>060-069>072-079>082-281500-
SOUTHWEST NEBRASKA

CITY           SKY/WX    TMP DP  RH WIND       PRES   REMARKS
NORTH PLATTE   SUNNY     65  61  87 NW10      29.98R
IMPERIAL       SUNNY     68  56  65 NW12      30.03R
LEXINGTON      CLOUDY    69  66  91 NW7       29.93S
MC COOK        SUNNY     67  60  78 NW15      29.98R
OGALLALA       SUNNY     66  57  73 NW14G20   30.03R
$$

NEZ005>010-023>029-035>040-094-281500-
NORTH CENTRAL NEBRASKA

CITY           SKY/WX    TMP DP  RH WIND       PRES   REMARKS
AINSWORTH      CLOUDY    66  66  99 N9        29.96R FOG
BROKEN BOW     PTSUNNY   70  64  81 NW13      29.92R
O`NEILL        CLOUDY    65  65  99 N10       29.92R FOG
ORD            CLOUDY    67  65  93 N8        29.88R FOG
THEDFORD       CLOUDY    66  64  92 N9G20     29.98S
$$

NEZ041-046>049-061>064-073>077-083>087-281500-
SOUTH CENTRAL NEBRASKA

CITY           SKY/WX    TMP DP  RH WIND       PRES   REMARKS
GRAND ISLAND   MOSUNNY   72  65  78 NW12      29.87F
AURORA         SUNNY     71  68  90 NW9       29.86S
HASTINGS       CLOUDY    69  65  86 NW5       29.89R
HEBRON         CLOUDY    73  66  80 SW9       29.87R
HOLDREGE       CLOUDY    68  65  91 N8        29.92R
KEARNEY *      PTSUNNY   72  64  78 NW8       29.90S
YORK           PTSUNNY   70  66  88 NW8       29.85S
$$

NEZ011>018-030>034-042>045-281500-
NORTHEAST NEBRASKA

CITY           SKY/WX    TMP DP  RH WIND       PRES   REMARKS
NORFOLK        CLOUDY    69  67  93 NW10      29.82S
ALBION         CLOUDY    68  64  86 NW10      29.87R
BLAIR          CLOUDY    68  65  89 S12       29.82F
COLUMBUS *     CLOUDY    70  63  78 NW7       29.83R
FREMONT        CLOUDY    72  67  86 S9        29.81F
TEKAMAH        CLOUDY    70  68  93 S8        29.80S
$$

NEZ050>053-065>068-078-088>093-281500-
SOUTHEAST NEBRASKA

CITY           SKY/WX    TMP DP  RH WIND       PRES   REMARKS
LINCOLN        CLOUDY    73  67  81 S10       29.84S
OMAHA EPPLEY   CLOUDY    70  66  87 S14       29.83F
BEATRICE       CLOUDY    73  65  76 S14G20    29.86R
FALLS CITY     CLOUDY    71  65  81 S12       29.89R
NEBRASKA CITY  PTSUNNY   69  67  93 S8        29.87R
PLATTSMOUTH    CLOUDY    69  65  86 SE8       29.86S
$$

NEZ044-045-051>053-067-281500-
OMAHA AREA

CITY           SKY/WX    TMP DP  RH WIND       PRES   REMARKS
EPPLEY FIELD   CLOUDY    70  66  87 S14       29.83F
BLAIR          CLOUDY    68  65  89 S12       29.82F
FREMONT        CLOUDY    72  67  86 S9        29.81F
MILLARD        CLOUDY    71  66  86 E5        29.84R
OFFUTT AFB     CLOUDY    69  66  90 SE12      29.83F
PLATTSMOUTH    CLOUDY    69  65  86 SE8       29.86S
WAHOO          CLOUDY    71  68  92 S7        29.82F
$$



USA.gov is the U.S. government's official web portal to all federal, state and local government web resources and services.